Torna al catalogo

FENGYUN 1C DEB

AttivoPO
NORAD 30035·DEBRIS·🇨🇳 China

Lanciato May 10, 1999 da Taiyuan Satellite Launch Center

Loading…

Prossimi Passaggi (prossime 24 ore)

TLE

AggiornatoSource: Space-Track

Epoca: Sep 14, 2026, 14:25 UTC

1 30035U 99025NL  26257.60092146  .00000120  00000-0  54402-4 0  9998
2 30035  99.2811 198.7911 0114258 338.9119 196.9768 14.37094145 30865

Traccia FENGYUN 1C DEB in tempo reale con AllMySat

Download on the App Store